Location: Aalen
(48.8330°N, 10.1000°E)
Time: 20:41:22
(UTC+02:00)

CAS-6 - Pass Details

Date: 01 April 2023
Orbit: 610 x 632 km, 97.9° (Epoch: 04 June)

Event Time Altitude Azimuth Distance (km) Brightness Sun altitude
Exits shadow 23:37:00 31° 341° (NNW) 1,100 ? -31.7°
Drops below altitude 10° 23:39:19 10° 345° (NNW) 2,008 ? -31.8°
Sets 23:41:32 0° 346° (NNW) 2,924 ? -32.0°
